TimeEDT,TemperatureF,Dew PointF,Humidity,Sea Level PressureIn,VisibilityMPH,Wind Direction,Wind SpeedMPH,Gust SpeedMPH,PrecipitationIn,Events,Conditions,WindDirDegrees,DateUTC
12:15 AM,47.5,45.9,94,29.87,0.5,Calm,Calm,-,0.03,Rain,Rain,0,2013-03-12 04:15:00
12:35 AM,47.7,46.0,94,29.84,0.2,SE,5.8,-,0.04,Rain,Rain,130,2013-03-12 04:35:00
1:15 AM,48.0,46.4,94,29.85,2.5,Calm,Calm,-,0.02,Rain,Heavy Rain,0,2013-03-12 05:15:00
1:35 AM,47.8,46.2,94,29.83,0.8,Calm,Calm,-,0.07,Rain,Rain,0,2013-03-12 05:35:00
1:55 AM,48.0,46.4,94,29.83,0.5,Calm,Calm,-,0.07,Rain,Light Rain,0,2013-03-12 05:55:00
2:15 AM,48.0,46.4,94,29.81,0.5,SE,3.5,-,0.01,Rain,Rain,140,2013-03-12 06:15:00
2:35 AM,48.2,46.4,93,29.80,0.5,SSE,3.5,-,0.02,Rain,Rain,150,2013-03-12 06:35:00
2:55 AM,47.8,46.4,95,29.79,0.5,SE,3.5,-,0.02,Fog,Fog,140,2013-03-12 06:55:00
3:15 AM,48.2,46.6,94,29.78,0.8,South,3.5,-,N/A,,Overcast,170,2013-03-12 07:15:00
3:35 AM,48.2,46.6,94,29.77,1.2,South,3.5,-,N/A,Rain,Rain,170,2013-03-12 07:35:00
3:55 AM,48.4,46.8,94,29.76,0.5,South,3.5,-,N/A,Rain,Rain,170,2013-03-12 07:55:00
4:35 AM,48.2,46.8,95,29.76,5.0,West,12.7,21.9,0.14,Rain,Rain,280,2013-03-12 08:35:00
4:55 AM,48.2,46.4,93,29.76,7.0,West,12.7,18.4,0.17,Rain,Rain,280,2013-03-12 08:55:00
5:15 AM,48.0,45.0,89,29.76,7.0,West,10.4,-,0.03,Rain,Light Rain,280,2013-03-12 09:15:00
5:35 AM,47.7,44.1,87,29.76,10.0,West,15.0,-,0.03,Rain,Light Rain,280,2013-03-12 09:35:00
5:55 AM,46.9,43.0,86,29.77,10.0,WNW,6.9,-,0.03,,Overcast,290,2013-03-12 09:55:00
6:15 AM,45.9,42.3,87,29.79,10.0,West,11.5,19.6,N/A,,Overcast,280,2013-03-12 10:15:00
6:35 AM,45.5,40.8,84,29.79,10.0,WNW,10.4,-,N/A,,Overcast,290,2013-03-12 10:35:00
7:15 AM,43.5,39.2,85,29.79,10.0,NW,12.7,-,N/A,,Mostly Cloudy,310,2013-03-12 11:15:00
7:35 AM,42.4,38.3,85,29.80,10.0,WNW,9.2,18.4,N/A,,Mostly Cloudy,300,2013-03-12 11:35:00
7:55 AM,41.7,36.7,82,29.80,10.0,WNW,13.8,20.7,N/A,,Scattered Clouds,290,2013-03-12 11:55:00
8:15 AM,40.6,36.3,85,29.80,10.0,WNW,16.1,23.0,N/A,,Scattered Clouds,300,2013-03-12 12:15:00
8:35 AM,41.0,35.6,81,29.82,10.0,WNW,17.3,31.1,N/A,,Overcast,290,2013-03-12 12:35:00
8:55 AM,41.2,36.3,83,29.82,10.0,West,15.0,-,N/A,,Overcast,270,2013-03-12 12:55:00
9:35 AM,38.8,34.5,84,29.85,10.0,WNW,19.6,27.6,N/A,,Overcast,300,2013-03-12 13:35:00
9:55 AM,38.7,34.0,83,29.87,10.0,WNW,11.5,26.5,N/A,,Overcast,300,2013-03-12 13:55:00
10:15 AM,38.7,33.1,80,29.87,10.0,NW,8.1,21.9,N/A,,Overcast,310,2013-03-12 14:15:00
10:35 AM,39.2,33.1,79,29.86,10.0,WNW,16.1,23.0,N/A,,Overcast,290,2013-03-12 14:35:00
10:55 AM,39.4,33.3,79,29.87,10.0,WNW,15.0,26.5,N/A,,Overcast,300,2013-03-12 14:55:00
11:15 AM,38.5,32.9,80,29.87,10.0,WNW,13.8,24.2,N/A,,Overcast,300,2013-03-12 15:15:00
11:35 AM,38.8,32.9,79,29.86,10.0,WNW,20.7,29.9,N/A,,Mostly Cloudy,300,2013-03-12 15:35:00
11:55 AM,40.6,32.9,74,29.86,10.0,West,16.1,25.3,N/A,,Scattered Clouds,280,2013-03-12 15:55:00
12:15 PM,41.0,32.0,70,29.86,10.0,West,15.0,25.3,N/A,,Scattered Clouds,280,2013-03-12 16:15:00
12:35 PM,41.9,32.0,68,29.87,10.0,West,15.0,20.7,N/A,,Scattered Clouds,270,2013-03-12 16:35:00
12:55 PM,42.1,32.0,67,29.86,10.0,West,17.3,-,N/A,,Scattered Clouds,270,2013-03-12 16:55:00
1:15 PM,42.8,31.8,65,29.86,10.0,West,23.0,29.9,N/A,,Clear,280,2013-03-12 17:15:00
1:35 PM,42.1,31.5,66,29.87,10.0,West,17.3,-,N/A,,Scattered Clouds,270,2013-03-12 17:35:00
1:55 PM,41.7,30.6,65,29.88,10.0,West,19.6,24.2,N/A,,Clear,280,2013-03-12 17:55:00
2:15 PM,42.3,30.2,62,29.88,10.0,West,13.8,19.6,N/A,,Scattered Clouds,280,2013-03-12 18:15:00
2:35 PM,41.5,29.5,62,29.88,10.0,NW,13.8,24.2,N/A,,Scattered Clouds,310,2013-03-12 18:35:00
2:55 PM,42.1,29.5,61,29.88,10.0,NNW,11.5,16.1,N/A,,Scattered Clouds,330,2013-03-12 18:55:00
3:15 PM,40.3,29.1,64,29.89,10.0,NW,11.5,18.4,N/A,,Mostly Cloudy,310,2013-03-12 19:15:00
3:35 PM,39.9,28.2,63,29.89,10.0,NNW,6.9,-,N/A,,Mostly Cloudy,330,2013-03-12 19:35:00
3:55 PM,40.5,28.6,63,29.88,10.0,WNW,4.6,-,N/A,,Scattered Clouds,300,2013-03-12 19:55:00
4:15 PM,41.2,27.9,59,29.88,10.0,North,4.6,-,N/A,,Scattered Clouds,360,2013-03-12 20:15:00
4:35 PM,41.9,28.4,59,29.88,10.0,North,3.5,-,N/A,,Scattered Clouds,10,2013-03-12 20:35:00
5:15 PM,43.7,27.5,53,29.88,10.0,West,4.6,-,N/A,,Clear,280,2013-03-12 21:15:00
5:35 PM,43.9,25.9,49,29.88,10.0,WNW,17.3,27.6,N/A,,Clear,300,2013-03-12 21:35:00
6:15 PM,43.3,25.3,49,29.89,10.0,WNW,9.2,26.5,N/A,,Clear,300,2013-03-12 22:15:00
6:35 PM,43.0,25.2,49,29.90,10.0,NW,12.7,18.4,N/A,,Clear,310,2013-03-12 22:35:00
6:55 PM,41.9,26.1,53,29.91,10.0,NNW,8.1,-,N/A,,Clear,330,2013-03-12 22:55:00
7:15 PM,41.0,26.6,57,29.91,10.0,WNW,15.0,20.7,N/A,,Clear,300,2013-03-12 23:15:00
7:35 PM,39.9,27.1,60,29.93,10.0,West,6.9,-,N/A,,Clear,270,2013-03-12 23:35:00
7:55 PM,39.4,27.7,63,29.93,10.0,WNW,5.8,-,N/A,,Clear,290,2013-03-12 23:55:00
8:15 PM,38.8,28.0,65,29.93,10.0,WNW,9.2,16.1,N/A,,Clear,290,2013-03-13 00:15:00
8:35 PM,38.5,28.0,66,29.93,10.0,WNW,18.4,26.5,N/A,,Clear,290,2013-03-13 00:35:00
9:15 PM,38.3,27.7,66,29.93,10.0,WNW,21.9,32.2,N/A,,Clear,300,2013-03-13 01:15:00
9:35 PM,37.8,27.3,66,29.93,10.0,WNW,23.0,34.5,N/A,,Clear,300,2013-03-13 01:35:00
9:55 PM,37.8,27.3,66,29.93,10.0,West,26.5,40.3,N/A,,Clear,280,2013-03-13 01:55:00
10:15 PM,37.6,27.1,66,29.93,10.0,West,27.6,46.0,N/A,,Clear,280,2013-03-13 02:15:00
10:35 PM,37.0,27.3,68,29.93,10.0,WNW,27.6,39.1,N/A,,Clear,290,2013-03-13 02:35:00
10:55 PM,36.7,26.8,67,29.93,10.0,WNW,27.6,35.7,N/A,,Clear,290,2013-03-13 02:55:00
11:15 PM,36.5,25.9,65,29.94,10.0,WNW,28.8,41.4,N/A,,Clear,290,2013-03-13 03:15:00
11:55 PM,36.5,24.8,63,29.94,10.0,WNW,28.8,36.8,N/A,,Clear,290,2013-03-13 03:55:00